VABB

Chhatrapati Shivaji International Airport

Airport
ICAO code
VABB
IATA Code
BOM
Summary
ICAO Region
APAC
ICAO Territory
Location

Mumbai, Maharashtra

Serving
Mumbai
Elevation
37 ft
Coordinates
19° 5' 26" N , 72° 52' 2" E
KCC
Metar
VABB 240530Z 23010G20KT 2200 DZ SCT010 SCT018 FEW030CB OVC080 28/24 Q1003 TEMPO 1500 SHRA

Description

International airport serving the city of Mumbai (formerly Bombay), India.

Climatology

Tropical Savanna climate (Köppen climate classification Aw) - monthly mean temperatures above 18°C, and a pronounced dry season. A Tropical Savanna climate has more pronounced dry seasons than a Tropical Monsoon climate.

Runways

Designator Length Width Surface Rops
14/32 2925 46 ASP Yes/Yes
9/27 3445 45 ASP Yes/Yes

SKYbrary Partners:

Safety knowledge contributed by: